Погода в Таврийском

Украина / Запорожская область     47°39′48″N   35°41′56″E
темп.,
°C
ветер,
м/с
пор.,
м/с
влажн.,
%
обл.,
%
осадки,
мм/ч
давл.,
гПа
погр.,
м
22 апреля, чт
чт2200:00+8ююз49897 0.0 1019194
03:00+7юз36936 0.0 1020114
06:00+6юз34935 0.0 102174
09:00+12юз34685 0.0 1022499
12:00+15юз43537 0.3 10221447
15:00+17зюз334573 0.6 10212090
18:00+15юз335461 0.3 1021518
21:00+11ююз487758 0.5 1022267
23 апреля, пт
пт2300:00+9юз498621 0.0 1022208
03:00+8ююз35890 0.0 1022103
06:00+7ююз369242 0.0 1022126
09:00+13ююз57632 0.0 1021617
12:00+16ююз794766 0.0 10201716
15:00+18ююз884399 0.0 10182339
18:00+16ю795096 0.0 10161283
21:00+11ююз61273100 0.1 1017429
24 апреля, сб
сб2400:00+10ююз4983100 0.5 1016350
03:00+9з5790100 0.9 1015741
06:00+7сз588396 0.6 1017613
09:00+9зсз57654 0.6 10181047
12:00+13з7104059 0.0 10182458
15:00+13зюз101238100 0.0 10172590
18:00+10з813475 0.1 10192061
21:00+6сз37580 0.1 1021159
25 апреля, вс
вс2500:00+4з33570 0.0 102236
03:00+3зсз36620 0.0 1022100
06:00+2зсз35700 0.0 102399
09:00+8з35480 0.0 10221021
12:00+11зсз44355 0.0 10221873
15:00+13з333354 0.0 10202051
18:00+12зюз323897 0.0 10201425
21:00+8ююз335097 0.0 102038
26 апреля, пн
пн2600:00+5ююз36625 0.0 102091
03:00+5юз367282 0.0 1019112
06:00+5зюз3580100 0.0 101889
09:00+10зюз6859100 0.0 1018893
12:00+6сз6785100 0.1 1019700
15:00+9сз575667 0.2 10181404
18:00+11зсз573988 0.0 10172417
21:00+8з345477 0.0 101850